Location: Nelson
(41.2830°S, 173.2830°E)
Time: 17:41:36
(UTC+12:00)

ISS - Visible Passes

Search period start: 06 June 2026 00:00
Search period end: 16 June 2026 00:00
Orbit: 413 x 423 km, 51.6° (Epoch: 5 June)

Date Brightness Start Highest point End Pass type
(mag) Time Alt. Az. Time Alt. Az. Time Alt. Az.
11 Jun -1.6 19:02:43 10° NNW 19:04:06 19° N 19:04:06 19° N visible
12 Jun -1.8 18:15:32 10° N 18:17:40 16° NE 18:18:17 15° ENE visible
12 Jun -0.5 19:50:43 10° WNW 19:51:14 14° WNW 19:51:14 14° WNW visible
13 Jun -3.2 19:02:33 10° NW 19:05:19 56° NW 19:05:19 56° NW visible
14 Jun -3.2 18:14:36 10° NNW 18:17:49 44° NE 18:19:20 26° E visible
14 Jun -0.5 19:51:40 10° W 19:52:16 14° W 19:52:16 14° W visible
15 Jun -2.7 19:03:08 10° W 19:06:11 41° SW 19:06:11 41° SW visible
